Location: Unspecified
(49.2170°N, 0.0000°E)
Time: 15:11:55
(UTC+00:00)

Transit 4A - Visible Passes

Search period start: 23 January 2021 00:00
Search period end: 02 February 2021 00:00
Orbit: 864 x 980 km, 66.8° (Epoch: 23 January)

Date Brightness Start Highest point End Pass type
(mag) Time Alt. Az. Time Alt. Az. Time Alt. Az.
23 Jan 9.6 04:18:24 20° SSE 04:18:24 20° SSE 04:20:09 10° SSE visible
23 Jan 9.8 06:01:59 10° SW 06:01:59 10° SW 06:02:08 10° SW visible
23 Jan 9.5 17:35:44 10° SE 17:39:04 15° ESE 17:41:36 12° ENE visible
23 Jan 7.9 19:18:02 10° SSW 19:24:24 72° ESE 19:25:11 64° ENE visible
23 Jan 9.8 21:05:33 10° W 21:08:45 25° WNW 21:08:45 25° WNW visible
24 Jan 10.0 04:28:37 13° S 04:28:37 13° S 04:29:09 10° S visible
24 Jan 9.2 17:43:24 10° SSE 17:48:02 22° ESE 17:51:34 14° ENE visible
24 Jan 7.9 19:27:16 10° SW 19:33:42 86° NW 19:35:08 57° NNE visible
24 Jan 10.0 21:15:35 10° W 21:18:42 23° WNW 21:18:42 23° WNW visible
25 Jan 8.8 17:51:39 10° SSE 17:57:06 30° ESE 18:01:26 15° ENE visible
25 Jan 8.3 19:36:44 10° SW 19:43:06 65° NW 19:44:59 45° NNE visible
25 Jan 10.2 21:25:43 10° WNW 21:28:33 20° NW 21:28:33 20° NW visible
26 Jan 8.4 18:00:15 10° S 18:06:13 42° ESE 18:11:11 15° NE visible
26 Jan 8.7 19:46:21 10° WSW 19:52:34 50° NW 19:54:44 36° N visible
26 Jan 10.3 21:35:55 10° WNW 21:38:17 17° NW 21:38:17 17° NW visible
27 Jan 8.1 18:09:09 10° SSW 18:15:24 59° ESE 18:20:50 14° NE visible
27 Jan 9.1 19:56:09 10° WSW 20:02:06 39° NW 20:04:23 30° N visible
27 Jan 10.5 21:46:10 10° WNW 21:47:56 15° NW 21:47:56 15° NW visible
28 Jan 7.9 18:18:16 10° SSW 18:24:40 80° ESE 18:30:24 13° NE visible
28 Jan 9.4 20:06:05 10° W 20:11:43 31° NW 20:13:56 25° N visible
28 Jan 10.6 21:56:21 10° NW 21:57:29 13° NW 21:57:29 13° NW visible
29 Jan 8.1 18:27:35 10° SW 18:34:01 78° NW 18:39:53 13° NE visible
29 Jan 9.7 20:16:09 10° W 20:21:24 26° NNW 20:23:25 22° N visible
29 Jan 10.7 22:06:26 10° NW 22:06:57 11° NW 22:06:57 11° NW visible
30 Jan 8.5 18:37:06 10° SW 18:43:26 59° NW 18:49:18 12° NNE visible
30 Jan 9.8 20:26:19 10° WNW 20:31:09 22° NNW 20:32:50 20° N visible
31 Jan 8.9 18:46:48 10° WSW 18:52:55 45° NW 18:58:40 11° NNE visible
31 Jan 10.0 20:36:33 10° WNW 20:40:57 19° NNW 20:42:11 18° N visible
01 Feb 9.3 18:56:39 10° WSW 19:02:29 36° NW 19:07:59 11° NNE visible
01 Feb 10.1 20:46:46 10° NW 20:50:48 17° NNW 20:51:30 17° N visible
